GW3984 Weather Reports


Display with metric or nautical units.
time (UTC)temp
F
wind
direction
speed
MPH
gust
MPH
rain 1hr
in
rain 24hr
in
rain mn
in
humidity
%
barometer
mb
20260905144525 82 88 1.0 4.0 0.00 0.00 0.00 79 1015.8
20260905143628 82 93 0.0 5.0 0.00 0.00 0.00 82 1015.0
20260905143020 81 190 0.0 7.0 0.00 0.00 0.00 82 1015.8
20260905142630 81 143 0.0 5.0 0.00 0.00 0.00 84 1015.0
20260905141633 82 103 0.0 3.0 0.00 0.00 0.00 83 1014.9
20260905141547 81 94 1.0 4.0 0.00 0.00 0.00 83 1015.7
20260905140622 81 74 0.0 1.0 0.00 0.00 0.00 86 1014.8
20260905140031 80 256 0.0 2.0 0.00 0.00 0.00 85 1015.5
20260905135612 81 149 0.0 1.0 0.00 0.00 0.00 86 1014.7
20260905134625 80 121 0.0 1.0 0.00 0.00 0.00 89 1014.6
20260905134530 79 119 0.0 2.0 0.00 0.00 0.00 89 1015.3
20260905133622 78 126 0.0 0.0 0.00 0.00 0.00 92 1014.6
20260905133029 77 128 0.0 0.0 0.00 0.00 0.00 91 1015.2
20260905132613 78 126 0.0 0.0 0.00 0.00 0.00 93 1014.5
20260905131625 76 126 0.0 0.0 0.00 0.00 0.00 93 1014.4
20260905131528 75 128 0.0 0.0 0.00 0.00 0.00 92 1015.1
20260905130031 74 128 0.0 0.0 0.00 0.00 0.00 93 1015.0
20260905125541 74 126 0.0 0.0 0.00 0.00 0.00 93 1014.2
20260905124551 73 126 0.0 0.0 0.00 0.00 0.00 93 1014.1
20260905124527 72 128 0.0 0.0 0.00 0.00 0.00 93 1014.9
20260905123535 73 126 0.0 0.0 0.00 0.00 0.00 93 1014.0
20260905123019 72 128 0.0 0.0 0.00 0.00 0.00 93 1014.6
20260905121518 72 128 0.0 0.0 0.00 0.00 0.00 93 1014.6
20260905121359 73 126 0.0 0.0 0.00 0.00 0.00 93 1013.8
20260905120408 73 126 0.0 0.0 0.00 0.00 0.00 93 1013.8
20260905120022 72 128 0.0 0.0 0.00 0.00 0.00 92 1014.5
20260905114525 72 128 0.0 0.0 0.00 0.00 0.00 92 1014.6
20260905114239 73 126 0.0 0.0 0.00 0.00 0.00 93 1013.8
20260905113258 73 126 0.0 0.0 0.00 0.00 0.00 93 1013.7
20260905113012 72 128 0.0 0.0 0.00 0.00 0.00 92 1014.4
20260905112310 73 126 0.0 0.0 0.00 0.00 0.00 92 1013.7
20260905111508 73 128 0.0 0.0 0.00 0.00 0.00 92 1014.4
20260905111248 73 126 0.0 0.0 0.00 0.00 0.00 92 1013.7
20260905110235 73 126 0.0 0.0 0.00 0.00 0.00 92 1013.7
20260905110008 73 128 0.0 0.0 0.00 0.00 0.00 92 1014.4
20260905105246 74 126 0.0 0.0 0.00 0.00 0.00 92 1013.6
20260905104529 73 128 0.0 0.0 0.00 0.00 0.00 92 1014.3
20260905104225 74 126 0.0 0.0 0.00 0.00 0.00 92 1013.6
20260905103223 74 126 0.0 0.0 0.00 0.00 0.00 92 1013.5
20260905103024 73 128 0.0 0.0 0.00 0.00 0.00 91 1014.2
20260905102156 74 126 0.0 0.0 0.00 0.00 0.00 92 1013.5
20260905101522 74 128 0.0 0.0 0.00 0.00 0.00 91 1014.3
20260905101158 74 126 0.0 0.0 0.00 0.00 0.00 92 1013.6
20260905100153 75 126 0.0 0.0 0.00 0.00 0.00 92 1013.6
20260905100023 74 128 0.0 0.0 0.00 0.00 0.00 91 1014.3
20260905095158 75 126 0.0 0.0 0.00 0.00 0.00 91 1013.5
20260905094518 74 128 0.0 0.0 0.00 0.00 0.00 91 1014.1
20260905094216 75 126 0.0 0.0 0.00 0.00 0.00 91 1013.5
20260905093156 75 126 0.0 0.0 0.00 0.00 0.00 91 1013.4
20260905093016 75 128 0.0 0.0 0.00 0.00 0.00 90 1014.1
20260905092132 76 126 0.0 0.0 0.00 0.00 0.00 91 1013.4
20260905091512 75 128 0.0 0.0 0.00 0.00 0.00 90 1014.1
20260905091141 76 126 0.0 0.0 0.00 0.00 0.00 90 1013.5
20260905090134 76 126 0.0 0.0 0.00 0.00 0.00 90 1013.4
20260905090009 76 128 0.0 0.0 0.00 0.00 0.00 89 1014.1
20260905085122 77 126 0.0 0.0 0.00 0.00 0.00 89 1013.5
20260905084526 77 128 0.0 0.0 0.00 0.00 0.00 88 1014.2
20260905084132 78 126 0.0 0.0 0.00 0.00 0.00 88 1013.5
20260905083151 78 126 0.0 0.0 0.00 0.00 0.00 88 1013.5
20260905083034 78 128 0.0 2.0 0.00 0.00 0.00 87 1014.2
20260905082200 78 140 0.0 0.0 0.00 0.00 0.00 87 1013.6
20260905081528 78 119 0.0 2.0 0.00 0.00 0.00 87 1014.3
20260905081136 78 105 0.0 0.0 0.00 0.00 0.00 87 1013.6
20260905080028 78 146 0.0 0.0 0.00 0.00 0.00 85 1014.4
20260905075025 79 106 0.0 0.0 0.00 0.00 0.00 85 1013.8
20260905074521 79 122 0.0 0.0 0.00 0.00 0.00 85 1014.5
20260905074039 79 134 0.0 0.0 0.00 0.00 0.00 85 1013.9
20260905073025 79 94 1.0 3.0 0.00 0.00 0.00 84 1014.7
20260905071913 79 114 0.0 4.0 0.00 0.00 0.00 85 1014.0
20260905071525 79 104 1.0 6.0 0.00 0.00 0.00 84 1014.7
20260905070927 79 142 0.0 3.0 0.00 0.00 0.00 85 1014.0
20260905070016 79 171 1.0 3.0 0.00 0.00 0.00 84 1014.8
20260905065853 80 143 0.0 4.0 0.00 0.00 0.00 84 1014.1
20260905064837 80 136 0.0 4.0 0.00 0.00 0.00 84 1014.1
20260905064531 79 157 2.0 4.0 0.00 0.00 0.00 83 1014.8
20260905063811 80 136 0.0 4.0 0.00 0.00 0.00 83 1014.1
20260905063030 79 155 1.0 6.0 0.00 0.00 0.00 82 1014.8
20260905061634 80 57 0.0 3.0 0.00 0.00 0.00 81 1014.2
20260905061531 79 167 1.0 4.0 0.00 0.00 0.00 81 1015.0
20260905060621 80 162 0.0 0.0 0.00 0.00 0.00 79 1014.2
20260905060041 80 120 1.0 6.0 0.00 0.00 0.00 78 1014.9
20260905055549 80 59 0.0 3.0 0.00 0.00 0.00 78 1014.2
20260905054536 80 128 0.0 4.0 0.00 0.00 0.00 75 1015.0
20260905054530 80 94 0.0 3.0 0.00 0.00 0.00 76 1014.2
20260905053524 80 135 0.0 2.0 0.00 0.00 0.00 75 1014.1
20260905053023 80 107 1.0 4.0 0.00 0.00 0.00 74 1014.9
20260905052451 81 117 0.0 3.0 0.00 0.00 0.00 74 1014.1
20260905051528 80 114 2.0 4.0 0.00 0.00 0.00 73 1014.9
20260905051422 81 105 0.0 5.0 0.00 0.00 0.00 73 1014.1
20260905050403 81 128 0.0 5.0 0.00 0.00 0.00 73 1014.1
20260905050018 80 88 1.0 7.0 0.00 0.00 0.00 72 1014.9
20260905045357 81 101 0.0 0.0 0.00 0.00 0.00 72 1014.1
20260905044514 80 131 0.0 2.0 0.00 0.00 0.00 72 1014.9
20260905043212 81 105 0.0 0.0 0.00 0.00 0.00 72 1014.1
20260905043010 81 157 1.0 2.0 0.00 0.00 0.00 71 1014.9
20260905042218 81 104 0.0 0.0 0.00 0.00 0.00 71 1014.1
20260905041532 81 75 1.0 4.0 0.00 0.00 0.00 70 1014.8
20260905041237 82 116 0.0 3.0 0.00 0.00 0.00 71 1014.0
20260905040240 81 160 0.0 1.0 0.00 0.00 0.00 71 1014.1
20260905040034 81 152 0.0 5.0 0.00 0.00 0.00 70 1014.9
20260905034529 81 125 0.0 3.0 0.00 0.00 0.00 70 1014.9
20260905034118 82 108 0.0 3.0 0.00 0.00 0.00 70 1014.1
20260905033051 82 96 0.0 3.0 0.00 0.00 0.00 70 1014.0
20260905033025 82 143 0.0 3.0 0.00 0.00 0.00 69 1014.7
20260905032023 82 155 0.0 2.0 0.00 0.00 0.00 70 1013.8
20260905031520 82 150 0.0 4.0 0.00 0.00 0.00 69 1014.4
20260905030950 82 122 0.0 2.0 0.00 0.00 0.00 71 1013.7
20260905030016 81 141 0.0 2.0 0.00 0.00 0.00 70 1014.4
20260905030011 82 139 0.0 1.0 0.00 0.00 0.00 71 1013.7
20260905024945 82 129 0.0 1.0 0.00 0.00 0.00 71 1013.5
20260905024516 81 119 0.0 2.0 0.00 0.00 0.00 70 1014.3
20260905023948 82 130 0.0 1.0 0.00 0.00 0.00 71 1013.5
20260905023010 81 224 0.0 2.0 0.00 0.00 0.00 70 1014.0
20260905022924 82 226 0.0 0.0 0.00 0.00 0.00 71 1013.3
20260905021900 82 136 0.0 1.0 0.00 0.00 0.00 69 1013.0
20260905021508 81 134 0.0 2.0 0.00 0.00 0.00 68 1013.7
20260905020837 82 124 0.0 1.0 0.00 0.00 0.00 69 1013.0
20260905020028 82 113 0.0 2.0 0.00 0.00 0.00 68 1013.8
20260905015810 82 138 0.0 0.0 0.00 0.00 0.00 68 1013.0
20260905014531 82 126 0.0 2.0 0.00 0.00 0.00 68 1013.8
20260905013033 81 119 0.0 0.0 0.00 0.00 0.00 71 1013.6
20260905012620 82 116 0.0 0.0 0.00 0.00 0.00 71 1012.7
20260905011529 83 119 0.0 0.0 0.00 0.00 0.00 67 1013.4
20260905010529 84 116 0.0 0.0 0.00 0.00 0.00 67 1012.5
20260905010024 84 119 0.0 0.0 0.00 0.00 0.00 65 1013.3
20260905005520 84 116 0.0 0.0 0.00 0.00 0.00 66 1012.4
20260905004529 85 116 0.0 1.0 0.00 0.00 0.00 63 1012.4
20260905004520 85 148 0.0 2.0 0.00 0.00 0.00 63 1013.3
20260905003517 86 122 0.0 0.0 0.00 0.00 0.00 62 1012.5
20260905003027 86 126 0.0 2.0 0.00 0.00 0.00 60 1013.2
20260905002445 87 184 0.0 0.0 0.00 0.00 0.00 60 1012.4
20260905001511 87 161 2.0 5.0 0.00 0.00 0.00 58 1013.1
20260905001429 88 85 0.0 4.0 0.00 0.00 0.00 59 1012.2
20260905000402 88 127 0.0 3.0 0.00 0.00 0.00 58 1012.0
20260905000044 88 151 1.0 5.0 0.00 0.00 0.00 57 1012.7
20260904235329 89 148 0.0 3.0 0.00 0.00 0.00 57 1011.8
20260904234537 89 159 1.0 5.0 0.00 0.00 0.00 53 1012.6
20260904234352 89 124 1.0 4.0 0.00 0.00 0.00 54 1011.8
20260904233406 89 138 0.0 4.0 0.00 0.00 0.00 55 1011.8
20260904233005 89 118 1.0 3.0 0.00 0.00 0.00 54 1012.6
20260904232425 89 70 0.0 5.0 0.00 0.00 0.00 53 1011.9
20260904231535 89 136 1.0 7.0 0.00 0.00 0.00 50 1012.8
20260904231438 89 122 1.0 5.0 0.00 0.00 0.00 50 1011.9
20260904230459 89 140 1.0 5.0 0.00 0.00 0.00 53 1011.8
20260904230048 89 126 2.0 5.0 0.00 0.00 0.00 54 1012.7
20260904225428 89 156 0.0 6.0 0.00 0.00 0.00 57 1011.9
20260904224521 89 134 0.0 4.0 0.00 0.00 0.00 58 1012.8
20260904224433 89 132 1.0 6.0 0.00 0.00 0.00 57 1012.0
20260904223424 88 138 0.0 5.0 0.00 0.00 0.00 57 1012.2
20260904223019 88 68 1.0 9.0 0.00 0.00 0.00 59 1013.1
20260904222411 89 198 0.0 5.0 0.00 0.00 0.00 59 1012.3
20260904221515 89 110 2.0 7.0 0.00 0.00 0.00 58 1013.1
20260904220200 89 43 1.0 4.0 0.00 0.00 0.00 59 1012.5
20260904220032 89 126 3.0 5.0 0.00 0.00 0.00 59 1013.2
20260904215217 89 58 0.0 4.0 0.00 0.00 0.00 61 1012.5
20260904214510 88 140 1.0 6.0 0.00 0.00 0.00 61 1013.6
20260904214222 89 117 1.0 4.0 0.00 0.00 0.00 61 1012.8
20260904213007 87 183 1.0 3.0 0.00 0.00 0.00 63 1013.6
20260904212057 87 115 0.0 4.0 0.00 0.00 0.00 64 1013.1
20260904211534 86 161 1.0 6.0 0.00 0.00 0.00 65 1014.0
20260904211110 87 164 0.0 3.0 0.00 0.00 0.00 65 1013.3
20260904210033 86 146 1.0 4.0 0.00 0.00 0.00 67 1014.1
20260904204527 86 131 2.0 4.0 0.00 0.00 0.00 68 1014.2
20260904203722 86 98 0.0 2.0 0.00 0.00 0.00 68 1013.5
20260904203026 86 162 0.0 4.0 0.00 0.00 0.00 68 1014.3
20260904202647 87 75 0.0 1.0 0.00 0.00 0.00 69 1013.6
20260904201642 87 112 0.0 5.0 0.00 0.00 0.00 69 1013.6
20260904201521 86 134 2.0 7.0 0.00 0.00 0.00 68 1014.4
20260904200701 86 61 0.0 4.0 0.00 0.00 0.00 69 1013.7
20260904200039 86 135 2.0 6.0 0.00 0.00 0.00 68 1014.6
20260904195706 86 117 1.0 4.0 0.00 0.00 0.00 70 1013.8
20260904194722 86 132 0.0 2.0 0.00 0.00 0.00 71 1013.7
20260904194512 85 158 1.0 2.0 0.00 0.00 0.00 70 1014.6
20260904193011 85 165 2.0 4.0 0.00 0.00 0.00 70 1014.9
20260904192636 86 190 0.0 2.0 0.00 0.00 0.00 72 1014.0
20260904191614 86 122 0.0 5.0 0.00 0.00 0.00 71 1014.1
20260904191532 85 115 1.0 7.0 0.00 0.00 0.00 70 1015.1
20260904190031 86 109 1.0 8.0 0.00 0.00 0.00 69 1015.0
20260904185433 86 124 0.0 6.0 0.00 0.00 0.00 71 1014.2
20260904184600 85 115 1.0 4.0 0.00 0.00 0.00 71 1015.2
20260904184437 86 108 0.0 3.0 0.00 0.00 0.00 72 1014.3
20260904183419 85 96 1.0 4.0 0.00 0.00 0.00 72 1014.5
20260904183025 85 150 2.0 6.0 0.00 0.00 0.00 71 1015.3
20260904182403 86 104 0.0 4.0 0.00 0.00 0.00 72 1014.6
20260904181528 85 99 1.0 4.0 0.00 0.00 0.00 71 1015.4
20260904181358 85 60 0.0 3.0 0.00 0.00 0.00 71 1014.6
20260904180353 85 81 0.0 3.0 0.00 0.00 0.00 72 1014.6
20260904180024 85 98 1.0 3.0 0.00 0.00 0.00 71 1015.4
20260904175354 85 156 0.0 4.0 0.00 0.00 0.00 72 1014.7
20260904174534 85 66 2.0 6.0 0.00 0.00 0.00 70 1015.5
20260904174345 85 98 0.0 5.0 0.00 0.00 0.00 71 1014.7
20260904173320 86 139 0.0 5.0 0.00 0.00 0.00 72 1014.9
20260904173013 85 128 1.0 7.0 0.00 0.00 0.00 71 1015.7
20260904172306 85 142 0.0 5.0 0.00 0.00 0.00 72 1014.9
20260904171533 85 127 2.0 5.0 0.00 0.00 0.00 71 1015.8
20260904171230 85 114 1.0 5.0 0.00 0.00 0.00 72 1015.0
20260904170229 85 136 0.0 3.0 0.00 0.00 0.00 72 1015.1
20260904170045 85 104 1.0 4.0 0.00 0.00 0.00 72 1016.0
20260904165159 84 129 0.0 3.0 0.00 0.00 0.00 75 1015.2
20260904164531 83 106 1.0 3.0 0.00 0.00 0.00 75 1016.1
20260904164137 84 99 0.0 2.0 0.00 0.00 0.00 75 1015.3
20260904163123 84 160 0.0 5.0 0.00 0.00 0.00 75 1015.2
20260904163042 84 166 1.0 7.0 0.00 0.00 0.00 75 1016.1
20260904162146 84 107 0.0 5.0 0.00 0.00 0.00 76 1015.5
20260904161526 83 107 1.0 4.0 0.00 0.00 0.00 77 1016.2
20260904161157 84 51 0.0 1.0 0.00 0.00 0.00 77 1015.4
20260904160027 82 195 0.0 5.0 0.00 0.00 0.00 81 1016.1
20260904155048 83 143 0.0 4.0 0.00 0.00 0.00 80 1015.4
20260904154524 81 125 1.0 5.0 0.00 0.00 0.00 80 1016.0
20260904153020 81 174 1.0 3.0 0.00 0.00 0.00 82 1015.9
20260904152945 81 170 0.0 2.0 0.00 0.00 0.00 83 1015.1
20260904151924 81 184 0.0 0.0 0.00 0.00 0.00 84 1015.1
20260904151534 80 101 0.0 4.0 0.00 0.00 0.00 84 1015.9
20260904150922 80 162 0.0 1.0 0.00 0.00 0.00 85 1014.9
20260904150036 79 134 0.0 4.0 0.00 0.00 0.00 86 1015.8
20260904145928 80 131 0.0 3.0 0.00 0.00 0.00 86 1015.0
20260904144936 80 72 0.0 0.0 0.00 0.00 0.00 86 1014.9